logo
Search for airport 
image banner adimage banner adimage banner ad
image banner ad

VRMR - Fuvahmulah Island/Airport

Located in Fuvahmulah, Maldives

ICAO - , IATA - FVM

Data provided by Airmate  

General information

Coordinates: S0°18'34" E73°25'58"
Elevation is 6 feet MSL.
 
View others Airports in Gnaviyani

Operational data

Special qualification required
Current time UTC:
Current local time:
Weather at : VRMG - Gan Island/International ( 53 km )
METAR: VRMG 231800Z 11007KT 9999 FEW018 FEW019CB BKN270 30/26 Q1011 CB NE NOSIG
TAF: TAF VRMG 231100Z 2312/2418 09010KT 9999 FEW018TCU TEMPO 2312/2318 FEW019CB
View NOTAMs / SUP AIP / TFR affecting this airport [VIEW]
Communications frequencies: [VIEW]

Runways:

RWY identifierQFULength (ft)Width (ft)SurfaceLDA (ft)
11106°360998UNK
29286°360998UNK

Airport contact information

Address: Fuvahmulah Maldives

Satellite view of VRMR